Location: Constantia
(34.0183°S, 18.4411°E)
Time: 08:41:46
(UTC+00:00)

Cosmos 2227 Rocket - Pass Details

Date: 17 February 2020
Orbit: 839 x 845 km, 71.0° (Epoch: 31 March)

Event Time Altitude Azimuth Distance (km) Brightness Sun altitude
Exits shadow 01:00:02 17° 208° (SSW) 2,048 4.4 -35.7°
Drops below altitude 10° 01:02:01 10° 190° (S) 2,494 5.1 -35.5°
Sets 01:05:07 0° 174° (S) 3,436 6.1 -35.1°
